Tracking 35237 objects as of 4-Sep-2026
HD Live streaming from Space Station
objects crossing your sky now

STARLINK-38017

Track STARLINK-38017 now!
10-day predictions
STARLINK-38017 is classified as:


NORAD ID: 100499
Int'l Code: 2026-196AC
Launch date: August 25, 2026
Source: United States (US)
Launch site: AIR FORCE EASTERN TEST RANGE (AFETR)
Your satellite tracking list
Your tracking list is empty




NASA's NSSDC Master Catalog

Two Line Element Set (TLE):
1 A0499U 26196AC  26247.36592349 -.00062855  12329-4 -16542-3 0  9998
2 A0499  53.1592 322.5872 0001184  74.2200 285.8959 15.93017311  2804
Source of the keplerian elements: AFSPC